Overview Statistics Trail Chart Weather Telemetry Raw packets
 

This is the latest recevied weather packets stored in our database for station/object WW6Q. If no packets are shown the sender has not sent any weather packets the latest 10 day(s).

<< 10 11 12 13 14 15 16 >>
Time Temp. Humidity Pressure Rain* Wind** Luminosity Snow
1788556124 29.44° C 63% 1012.7 hPa 0 mm - 56 W/m² -
1788555824 29.44° C 67% 1012.5 hPa 0 mm - 56 W/m² -
1788555520 29.44° C 65% 1012.4 hPa 0 mm - 56 W/m² -
1788555215 29.44° C 69% 1012.5 hPa 0 mm - 57 W/m² -
1788554912 29.44° C 67% 1012.5 hPa 0 mm - 68 W/m² -
1788554608 29.44° C 63% 1012.5 hPa 0 mm - 70 W/m² -
1788554304 29.44° C 67% 1012.6 hPa 0 mm - 82 W/m² -
1788554000 29.44° C 70% 1012.6 hPa 0 mm - 86 W/m² -
1788553695 28.89° C 69% 1012.8 hPa 0 mm - 96 W/m² -
1788553391 28.89° C 72% 1012.5 hPa 0 mm - 65 W/m² -
1788553087 29.44° C 66% 1012.4 hPa 0 mm - 133 W/m² -
1788552781 29.44° C 69% 1012.6 hPa 0 mm - 210 W/m² -
1788552477 28.89° C 67% 1012.5 hPa 0 mm - 210 W/m² -
1788552176 28.89° C 71% 1012.6 hPa 0 mm - 213 W/m² -
1788551875 28.89° C 76% 1012.6 hPa 0 mm - 261 W/m² -
1788551574 28.33° C 73% 1013 hPa 0 mm - 269 W/m² -
1788551269 28.33° C 73% 1013 hPa 0 mm - 285 W/m² -
1788550968 27.78° C 77% 1013.1 hPa 0 mm - 485 W/m² -
1788550664 27.78° C 80% 1013 hPa 0 mm - 1454 W/m² -
1788550359 27.22° C 80% 1013.2 hPa 0 mm - 1274 W/m² -
1788550054 27.22° C 80% 1013.1 hPa 0 mm - 953 W/m² -
1788549750 27.22° C 78% 1013.1 hPa 0 mm - 1052 W/m² -
1788549446 26.67° C 81% 1013 hPa 0 mm - 1371 W/m² -
1788549142 26.11° C 84% 1013.1 hPa 0 mm - 1330 W/m² -
1788548838 25.56° C 84% 1013.5 hPa 0 mm - 718 W/m² -

* Rain latest hour (hover to see other rain measurements)
** Current wind speed in m/s (hover to see current wind gust speed)